Regional Weather Roundup
Issued by NWS

Home | Current Version | Previous Version | Graphics & Text | Print | Product List | Glossary On
Versions: 1 2 3 4 5 6 7 8 9 10 11 12 13 14 15 16 17 18 19 20 21 22 23 24 25 26 27 28 29 30 31 32 33 34 35 36 37 38 39 40 41 42 43 44 45 46 47 48 49 50
000
ASUS43 KOAX 162310
RWRNE

WEATHER ROUNDUP FOR NEBRASKA
NATIONAL WEATHER SERVICE OMAHA NE
600 PM CDT WED AUG 16 2017

NOTES: SATELLITE DATA IS BEING USED TO AUGMENT CLOUD COVER ABOVE
       12000 FEET.
       "FAIR" INDICATES FEW OR NO CLOUDS BELOW 12,000 FEET WITH NO
       SIGNIFICANT WEATHER AND/OR OBSTRUCTIONS TO VISIBILITY.


NEZ001>004-019>022-054>056-170000-
NEBRASKA PANHANDLE

CITY           SKY/WX    TMP DP  RH WIND       PRES   REMARKS
SCOTTSBLUFF    SUNNY     79  46  31 NW3       30.05R
ALLIANCE       SUNNY     74  48  39 N10       30.04S
CHADRON        MOSUNNY   78  45  30 NE5       30.01S
GORDON         FAIR      75  50  41 N10       30.01S
KIMBALL        MOSUNNY   75  46  36 N10       30.10S
SIDNEY         MOSUNNY   75  51  43 N14       30.08R
$$

NEZ057>060-069>072-079>082-170000-
SOUTHWEST NEBRASKA

CITY           SKY/WX    TMP DP  RH WIND       PRES   REMARKS
NORTH PLATTE   MOSUNNY   73  61  65 NW6       29.97S
IMPERIAL       SUNNY     78  55  44 N12       30.01R
LEXINGTON      CLOUDY    71  62  73 NW13G20   29.93F
MCCOOK         MOSUNNY   75  64  68 N15       29.96R
OGALLALA       MOSUNNY   73  58  59 N14       30.01S
$$

NEZ005>010-023>029-035>040-094-170000-
NORTH CENTRAL NEBRASKA

CITY           SKY/WX    TMP DP  RH WIND       PRES   REMARKS
VALENTINE      PTSUNNY   75  56  51 NW14      29.94F
AINSWORTH      CLOUDY    67  60  77 NW14G20   29.94S
BROKEN BOW     CLOUDY    66  63  90 NW16      29.93R
O`NEILL        CLOUDY    65  63  92 W15G22    29.89R
ORD            CLOUDY    68  62  81 NW10G22   29.88F
THEDFORD       CLOUDY    73  56  56 NW17      29.97S
$$

NEZ041-046>049-061>064-073>077-083>087-170000-
SOUTH CENTRAL NEBRASKA

CITY           SKY/WX    TMP DP  RH WIND       PRES   REMARKS
GRAND ISLAND   CLOUDY    73  65  75 NW22      29.88R
AURORA         PTSUNNY   71  68  89 W8        29.87R
HASTINGS       MOSUNNY   74  63  68 NW18G28   29.90R
HEBRON         MOSUNNY   81  64  55 NW10      29.84S
HOLDREGE       LGT RAIN  69  62  79 NW7       29.92R
KEARNEY        CLOUDY    73  63  70 NW15      29.91R
YORK           PTSUNNY   75  64  69 NW10G16   29.84R
$$

NEZ011>018-030>034-042>045-170000-
NORTHEAST NEBRASKA

CITY           SKY/WX    TMP DP  RH WIND       PRES   REMARKS
NORFOLK        CLOUDY    71  64  78 N13       29.80R
ALBION         CLOUDY    71  65  81 NW14      29.86R
BLAIR          MOSUNNY   75  67  75 W10       29.78S
COLUMBUS       PTSUNNY   74  66  76 W12       29.83R
FREMONT        MOSUNNY   76  66  69 W15       29.80S
TEKAMAH        CLOUDY    76  66  71 W9G17     29.77R
WAYNE          CLOUDY    73  69  85 W9        29.79R
$$

NEZ050>053-065>068-078-088>093-170000-
SOUTHEAST NEBRASKA

CITY           SKY/WX    TMP DP  RH WIND       PRES   REMARKS
LINCOLN        MOSUNNY   81  65  58 NW13      29.81R
OMAHA EPPLEY   PTSUNNY   80  66  62 W15       29.76S
BEATRICE       PTSUNNY   82  65  57 NW10      29.82S
FALLS CITY     CLOUDY    83  65  54 W12       29.77F
NEBRASKA CITY  PTSUNNY   81  66  60 W12       29.80S
PLATTSMOUTH    PTSUNNY   79  65  60 W9        29.78F
$$

NEZ044-045-051>053-067-170000-
OMAHA AREA

CITY           SKY/WX    TMP DP  RH WIND       PRES   REMARKS
OMAHA EPPLEY   PTSUNNY   80  66  62 W15       29.76S
BLAIR          MOSUNNY   75  67  75 W10       29.78S
FREMONT        MOSUNNY   76  66  69 W15       29.80S
MILLARD        PTSUNNY   80  67  65 NW16G22   29.78S
OFFUTT AFB     MOSUNNY   82  64  54 W14G23    29.77S
PLATTSMOUTH    PTSUNNY   79  65  60 W9        29.78F
WAHOO          FAIR      77  66  68 NW14      29.80S
$$




USA.gov is the U.S. government's official web portal to all federal, state and local government web resources and services.